This is the latest recevied weather packets stored in our database for station/object KE0QIB. If no packets are shown the sender has not sent any weather packets the latest 10 day(s).
| Time | Temp. | Humidity | Pressure | Rain* | Wind** | Luminosity | Snow |
|---|---|---|---|---|---|---|---|
| 1778186206 | 15.56° C | 29% | 994.3 hPa | 0 mm | - | - | - |
| 1778185906 | 15.56° C | 29% | 994.3 hPa | 0 mm | - | - | - |
| 1778185606 | 15.56° C | 29% | 994.3 hPa | 0 mm | - | - | - |
| 1778185306 | 15.56° C | 29% | 994.3 hPa | 0 mm | - | - | - |
| 1778185006 | 15.56° C | 29% | 994.3 hPa | 0 mm | - | - | - |
| 1778184706 | 15.56° C | 32% | 994.3 hPa | 0 mm | - | - | - |
| 1778184406 | 15.56° C | 29% | 994.5 hPa | 0 mm | - | - | - |
| 1778184106 | 16.11° C | 28% | 994.5 hPa | 0 mm | - | - | - |
| 1778183806 | 15.56° C | 29% | 994.5 hPa | 0 mm | - | - | - |
| 1778183506 | 15.56° C | 28% | 994.6 hPa | 0 mm | - | - | - |
| 1778183206 | 16.11° C | 28% | 994.6 hPa | 0 mm | - | - | - |
| 1778182906 | 16.11° C | 28% | 994.6 hPa | 0 mm | - | - | - |
| 1778182606 | 15.56° C | 29% | 994.7 hPa | 0 mm | - | - | - |
| 1778182306 | 16.11° C | 28% | 994.7 hPa | 0 mm | - | - | - |
| 1778182006 | 15.56° C | 29% | 994.7 hPa | 0 mm | - | - | - |
| 1778181706 | 15° C | 30% | 995 hPa | 0 mm | - | - | - |
| 1778181406 | 15° C | 29% | 995 hPa | 0 mm | - | - | - |
| 1778181106 | 15° C | 29% | 995 hPa | 0 mm | - | - | - |
| 1778180806 | 15° C | 29% | 995 hPa | 0 mm | - | - | - |
| 1778180506 | 15° C | 30% | 995 hPa | 0 mm | - | - | - |
| 1778180206 | 14.44° C | 32% | 995 hPa | 0 mm | - | - | - |
| 1778179906 | 14.44° C | 32% | 995.4 hPa | 0 mm | - | - | - |
| 1778179606 | 14.44° C | 30% | 995.4 hPa | 0 mm | - | - | - |
| 1778179306 | 14.44° C | 29% | 995.4 hPa | 0 mm | - | - | - |
| 1778179006 | 14.44° C | 30% | 995.1 hPa | 0 mm | - | - | - |
* Rain latest hour (hover to see other rain measurements)
** Current wind speed in m/s (hover to see current wind gust speed)